SCP
0 0 0 0 0 0 0 0 0 0 0 0 0 0 0 0 0 0 0 0 0 0 0 0 0 0 0 0 0 0 0 0 0 0 0 0 0 0 0 0 0 0 0 0 0 0 0 0 0
0 0 0 0 0 0 0 0 0 0 0 0 0 0 0 0 0 0 0 0 0 0 0 0 0 0 0 0 0 0 0 0 0 0 0 0 0 0 0 0 0 0 0 0 0 0 0 0 0
0 0 0 0 0 0 0 0 0 0 0 0 0 0 0 0 0 0 0 0 0 0 0 0 0 0 0 0 0 0 0 0 0 0 0 0 0 0 0 0 0 0 0 0 0 0 0 0 0
0 0 0 0 0 0 0 0 0 0 0 0 0 0 0 0 0 0 0 0 0 0 0 0 0 0 0 0 0 0 0 0 0 0 0 0 0 0 0 0 0 0 0 0 0 0 0 0 0
0 0 0 0 0 0 0 0 0 0 0 0 0 0 0 0 0 0 0 0 0 0 0 0 0 0 0 0 0 0 0 0 0 0 0 0 0 0 0 0 0 0 0 0 0 0 0 0 -0
0 0 0 0 0 0 0 0 0 0 0 0 0 0 0 0 0 0 0 0 0 0 0 0 0 0 0 0 0 0 0 0 0 0 0 0 0 0 0 0 0 0 0 0 0 0 0 0 -0
0 0 0 0 0 0 0 0 0 0 0 0 0 0 0 0 0 0 0 0 0 0 0 0 0 0 0 0 0 0 0 0 0 0 0 0 0 0 0 0 0 0 0 0 0 0 0 -0 -0
0 0 0 0 0 0 0 0 0 0 0 0 0 0 0 0 0 0 0 0 0 0 0 0 0 0 0 0 0 0 0 0 0 0 0 0 0 0 0 0 0 0 0 0 0 0 0 -0 -0
0 0 0 0 0 0 0 0 0 0 0 0 0 0 0 0 0 0 0 0 1 1 0 0 0 0 0 0 0 0 0 0 0 0 0 0 0 0 0 0 0 0 0 0 0 0 0 0 0
0 0 0 0 0 0 0 0 0 0 0 0 0 1 1 0 0 0 0 1 1 1 1 0 0 0 0 0 0 0 0 0 0 0 0 0 0 0 0 0 0 0 0 0 0 0 0 0 0
0 0 0 0 0 0 0 0 0 0 0 0 1 1 1 1 1 1 1 1 1 1 1 1 0 0 0 0 0 0 0 0 0 0 0 0 0 0 0 0 0 0 0 0 0 0 0 0 0
0 0 0 0 0 0 0 0 0 0 0 0 1 1 1 1 1 1 1 1 1 1 1 1 1 1 1 0 0 0 0 0 0 0 0 0 0 0 0 0 0 0 0 0 0 0 0 0 0
0 0 0 0 0 0 0 0 0 0 0 0 1 1 1 1 1 1 1 1 1 1 1 1 1 1 1 1 0 0 0 0 0 0 0 0 0 0 0 0 0 0 0 0 0 0 0 0 0
0 0 0 0 0 0 0 0 0 0 0 0 1 1 1 1 1 1 1 1 1 1 1 1 1 1 1 1 1 0 0 0 0 0 0 0 0 0 0 0 0 0 0 0 0 0 0 0 0
0 0 0 0 0 0 0 0 0 0 0 0 1 1 1 1 1 1 1 2 2 1 1 2 2 1 1 1 1 1 1 1 1 1 1 0 0 0 0 0 0 0 0 0 0 0 0 0 0
0 0 0 0 0 0 0 0 0 0 0 0 0 1 1 1 1 1 2 2 2 2 2 2 2 1 1 1 1 1 1 1 1 1 1 1 1 1 1 0 0 0 0 0 0 0 0 0 0
0 0 0 0 0 0 0 0 0 0 0 0 0 1 1 1 1 1 2 2 2 2 2 2 2 2 1 1 1 1 1 1 1 1 1 1 1 1 1 1 0 0 0 0 0 0 0 0 0
0 0 0 0 0 0 0 0 0 0 0 0 0 1 1 1 1 1 2 2 2 2 2 2 2 2 1 1 1 1 1 1 1 1 1 1 1 1 1 1 1 1 1 0 0 0 0 0 0
0 0 0 0 0 0 0 0 0 0 0 0 1 1 1 1 1 2 2 2 2 2 2 2 2 2 2 1 1 1 1 1 1 1 1 1 1 1 1 1 1 1 1 1 0 0 0 0 0
0 0 0 0 0 0 0 0 0 0 0 0 0 1 1 1 1 2 2 2 2 2 2 2 2 2 2 1 1 1 1 1 1 1 1 1 1 1 1 1 1 1 1 1 1 1 0 0 0
0 0 0 0 0 0 0 0 0 0 0 0 0 1 1 1 1 2 2 2 2 2 2 2 2 2 2 1 1 1 1 1 1 1 1 2 1 1 1 1 1 1 1 1 1 1 1 0 0
0 0 0 0 0 0 0 0 0 0 0 0 0 1 1 1 1 2 2 2 2 2 2 2 2 2 1 1 1 1 1 1 1 1 2 2 1 1 1 1 1 1 1 1 1 1 1 0 0
0 0 0 0 0 0 0 0 0 0 0 0 0 1 1 1 1 2 2 2 2 2 2 2 2 2 2 1 1 1 1 1 1 1 2 2 1 1 1 1 1 1 1 1 1 1 1 1 0
0 0 0 0 0 0 0 0 0 0 0 0 0 1 1 1 1 2 2 2 2 2 1 2 2 2 2 1 1 1 1 1 1 1 2 2 1 1 1 1 1 1 1 1 1 1 1 1 0
0 0 0 0 0 0 0 0 0 0 0 0 0 1 1 1 1 1 2 2 1 1 1 2 2 2 2 1 1 1 1 1 1 1 1 1 1 1 1 1 1 1 1 1 1 1 1 1 1
0 0 0 0 0 0 0 0 0 0 0 0 0 1 1 1 1 1 1 1 1 1 1 2 2 2 2 1 1 1 1 1 1 1 1 1 1 1 1 1 1 1 1 1 1 1 1 1 1
0 0 0 0 0 0 0 0 0 0 0 0 0 1 1 1 1 1 1 1 1 1 1 2 2 2 2 1 1 1 1 1 1 1 1 1 1 1 1 1 1 1 1 1 1 1 1 1 1
0 0 0 0 0 0 0 0 0 0 0 0 0 1 1 1 1 1 1 1 1 1 1 2 2 2 2 1 1 1 1 1 1 1 1 1 1 1 1 1 1 1 1 1 1 1 1 1 1
0 0 0 0 0 0 0 0 0 0 0 0 1 1 1 1 1 1 1 1 1 1 1 1 1 1 1 1 1 1 1 1 1 1 1 1 1 1 1 1 1 1 1 1 1 1 1 1 1
0 0 0 0 0 0 0 0 0 0 0 0 1 1 1 1 1 1 1 1 1 1 1 1 1 1 1 1 1 1 1 1 1 1 1 1 1 1 1 1 1 1 1 1 1 1 1 1 1
Wind_Speed
9 12 10 7 5 4 4 11 12 13 13 12 10 13 17 15 12 12 15 22 24 21 18 16 15 15 15 15 14 14 13 13 13 13 12 12 12 12 12 13 13 13 13 13 13 14 14 14 14
10 13 9 5 4 0 6 10 13 13 10 9 11 16 17 17 16 16 18 22 23 20 17 16 17 16 15 14 14 14 13 13 13 12 12 12 12 12 12 13 13 13 13 14 14 14 14 14 13
13 15 8 5 4 2 8 11 11 11 9 9 13 16 14 13 15 15 19 22 21 19 17 17 17 16 15 14 14 13 13 13 12 12 11 12 12 12 12 13 13 13 13 14 14 14 13 13 11
9 8 7 5 3 5 9 10 9 9 10 8 11 13 13 12 15 18 20 22 21 19 18 17 17 16 16 15 14 13 13 12 12 12 11 11 11 12 12 12 12 13 13 13 13 13 12 11 10
9 6 6 5 2 7 9 9 8 7 9 11 15 16 13 13 19 20 19 21 20 20 18 17 17 16 16 15 14 13 12 12 12 11 11 11 11 12 12 12 12 13 13 13 12 12 12 10 8
7 6 6 4 1 6 8 8 6 7 9 11 15 16 11 15 17 17 18 18 20 20 19 16 17 16 15 15 14 13 13 12 12 11 11 11 11 11 12 12 12 12 12 12 12 11 10 9 6
9 8 8 6 3 5 8 6 6 5 7 8 12 14 12 15 15 16 16 16 19 20 18 15 15 14 15 14 14 13 13 12 12 11 11 11 11 12 12 11 11 11 11 11 11 10 9 8 5
10 9 10 7 3 6 7 5 7 6 7 6 9 11 14 16 16 15 14 15 18 19 18 15 15 14 13 12 13 13 13 12 12 11 11 11 11 11 12 11 10 11 10 10 10 9 8 7 4
12 9 8 4 1 5 6 5 7 8 8 5 8 12 19 20 18 16 14 13 15 16 16 16 16 14 13 13 13 13 12 12 11 10 11 11 8 9 9 11 11 10 10 9 9 8 8 7 5
9 8 8 2 2 2 4 4 5 6 9 9 12 16 19 19 18 16 15 15 15 15 15 14 14 13 13 12 11 9 9 9 8 7 9 6 4 5 9 12 11 10 9 9 8 7 7 6 4
10 11 9 5 1 2 1 2 4 4 6 9 12 18 18 18 16 15 14 13 13 13 13 15 13 11 10 8 9 6 5 7 7 7 7 5 5 6 7 6 7 6 8 6 6 6 5 5 3
11 11 7 6 2 0 2 3 2 4 7 12 14 17 17 17 16 15 14 13 12 11 11 13 14 9 7 8 7 6 6 6 5 7 7 5 3 4 5 4 5 5 3 3 4 3 4 4 4
12 11 9 7 5 4 4 3 1 3 8 13 17 18 17 16 15 13 13 12 12 10 10 11 12 8 6 5 4 6 6 7 6 6 5 5 4 3 4 3 3 4 3 4 3 2 3 3 2
10 10 10 9 9 7 6 5 5 5 8 11 15 15 15 15 14 13 12 12 13 11 10 10 11 9 6 4 2 2 4 5 6 5 5 5 4 4 4 4 2 3 3 3 3 3 3 2 1
11 11 11 11 11 10 7 8 6 4 7 10 13 14 14 13 13 13 13 12 13 11 9 9 10 10 7 6 5 4 4 6 5 5 6 4 4 5 4 3 3 3 3 3 2 2 2 3 3
11 12 13 13 12 9 8 8 4 5 7 8 11 12 13 11 12 12 13 12 12 11 9 9 10 11 8 6 5 4 4 5 5 6 6 5 4 5 4 4 4 3 3 3 2 2 2 2 2
14 14 14 11 11 9 8 7 6 6 7 8 8 10 11 11 11 11 13 13 11 11 10 9 8 10 9 7 5 4 2 3 4 5 6 6 5 5 4 2 3 3 3 3 3 3 2 2 2
12 13 11 10 10 10 8 8 8 8 7 8 8 8 9 10 10 11 11 12 11 10 10 9 8 9 8 6 4 3 3 3 3 4 5 7 5 6 4 3 4 3 2 2 1 3 2 1 2
14 11 9 8 5 7 8 7 7 7 7 7 7 8 9 9 9 9 10 11 12 11 11 10 10 9 7 6 6 5 4 4 3 4 6 7 6 6 4 3 4 3 2 3 3 2 3 2 2
15 14 10 7 6 5 7 8 8 8 7 8 9 9 9 10 10 11 11 12 13 12 12 11 10 10 9 6 5 4 4 4 4 4 6 7 6 6 6 4 3 4 2 3 2 2 1 3 3
14 14 12 9 7 7 9 10 8 7 6 7 9 9 10 10 11 13 12 12 12 12 12 11 10 10 9 8 5 4 3 3 4 5 4 6 6 6 5 7 5 4 4 4 4 3 3 2 2
13 12 12 11 9 7 10 8 8 7 7 9 9 10 10 10 10 11 12 11 11 11 11 10 10 9 8 7 8 8 6 6 5 5 5 6 6 6 6 6 6 4 4 4 5 5 3 3 2
12 10 11 11 10 11 10 9 5 6 9 10 9 9 9 10 10 10 11 10 10 10 10 9 9 8 8 8 7 7 7 5 4 4 6 6 5 6 6 6 5 5 4 4 4 3 4 3 3
11 11 9 10 10 13 13 10 6 7 10 9 9 9 8 10 10 10 10 10 8 8 9 9 9 9 9 9 8 7 7 6 6 6 6 5 4 4 6 6 5 5 4 5 4 4 5 4 3
13 10 8 9 10 12 12 10 6 7 6 7 9 9 8 9 10 10 10 10 9 9 9 9 10 9 9 9 8 7 7 6 6 6 6 6 5 5 6 6 5 5 5 5 5 5 4 5 4
16 16 11 8 8 9 9 7 5 10 9 8 9 11 10 9 9 10 9 9 9 9 8 8 9 8 8 8 7 6 6 5 5 5 5 5 4 5 6 6 6 6 6 6 5 5 6 5 5
17 16 17 12 9 6 4 4 6 9 11 11 10 11 10 9 9 10 9 8 8 8 8 7 8 7 7 7 7 6 6 5 5 4 5 4 4 5 6 6 6 5 5 5 5 4 5 4 5
17 15 11 11 8 7 7 8 7 11 11 11 10 10 10 11 10 10 9 8 7 7 7 7 7 7 6 6 6 6 5 5 4 4 4 4 4 4 5 6 5 5 5 5 5 4 5 5 5
17 17 12 9 8 8 5 1 1 5 7 9 10 10 9 10 9 9 8 7 7 6 6 6 5 5 5 5 5 4 4 4 4 3 4 3 2 3 3 4 4 4 4 5 5 5 5 5 5
16 15 14 9 9 8 5 3 2 3 5 6 9 9 9 10 9 9 9 7 6 6 5 5 5 5 5 4 4 4 3 3 3 4 3 3 2 2 3 3 3 4 4 4 5 6 5 5 5
Wind_Direction
238 244 239 255 256 245 85 84 79 72 69 63 56 69 70 61 73 94 117 117 117 120 124 125 123 125 125 125 122 121 119 116 112 109 106 103 102 103 103 102 100 101 102 102 102 101 101 100 100
260 257 245 245 267 110 88 85 81 78 80 81 70 70 75 73 89 108 116 117 120 125 131 125 124 125 125 125 125 123 121 118 115 112 109 107 105 104 104 103 102 102 103 103 103 102 103 104 104
262 263 262 232 243 120 95 91 91 94 88 82 79 68 67 88 102 113 121 124 123 123 120 124 127 126 126 126 125 124 121 119 117 114 111 109 107 105 104 103 104 103 103 104 104 104 105 107 109
260 250 242 252 225 104 101 101 104 105 98 90 90 82 75 83 109 120 128 124 122 124 124 128 129 128 128 128 127 125 124 121 119 117 114 112 110 108 106 105 105 105 105 105 107 107 108 110 114
251 264 262 277 224 106 98 96 99 99 96 92 92 94 90 96 114 127 131 128 132 128 126 131 131 131 131 130 129 127 126 124 122 119 118 115 114 111 110 109 107 107 107 107 109 111 113 113 116
258 254 261 263 190 105 100 99 108 97 98 102 106 104 102 115 125 137 136 138 134 129 129 131 134 134 134 133 132 130 130 129 127 124 122 120 118 116 112 112 112 112 112 112 113 115 117 118 118
263 276 266 245 203 118 108 105 98 104 102 105 110 110 125 133 137 143 139 139 132 129 131 140 140 138 137 136 136 136 135 133 131 130 129 127 126 123 119 116 117 116 117 117 118 120 121 123 128
267 285 283 263 170 112 113 116 115 112 94 99 109 120 139 140 148 144 143 140 134 133 139 145 146 145 147 144 143 142 141 140 139 140 139 136 135 134 131 127 123 121 121 123 125 128 130 136 151
263 266 275 292 100 120 122 119 119 117 117 95 83 115 138 146 151 149 150 145 137 138 143 151 149 154 157 152 148 148 148 148 149 152 152 153 158 150 150 129 131 131 131 133 137 141 145 153 177
243 261 271 316 54 91 115 132 136 134 127 109 102 111 134 149 155 159 158 153 145 144 150 151 150 158 161 152 148 160 161 158 172 163 168 183 168 144 134 133 141 144 146 149 156 157 166 184 184
243 257 282 303 46 28 12 151 146 135 129 129 135 137 150 155 159 164 163 157 147 151 153 150 147 159 159 140 158 164 161 158 179 167 174 172 154 142 134 147 149 157 166 175 163 179 200 203 196
245 262 272 290 330 331 289 280 120 128 130 136 153 150 158 163 167 170 165 158 150 159 156 150 145 158 150 148 161 160 157 163 166 166 180 166 169 156 151 159 159 167 179 179 174 196 190 192 174
243 260 264 266 261 239 241 258 213 136 128 139 148 151 164 170 173 170 163 157 155 164 160 145 143 146 141 136 163 167 157 162 158 161 178 164 162 151 136 136 153 165 164 175 189 194 165 162 147
258 255 258 257 253 241 235 228 220 173 146 143 148 158 170 174 172 162 164 162 160 168 164 144 145 141 140 143 183 167 156 147 149 160 163 171 156 140 137 145 163 164 163 171 175 171 153 144 120
260 264 259 247 241 232 232 237 226 196 162 159 158 165 172 176 172 167 167 167 164 166 160 145 147 145 154 165 191 182 169 157 154 149 150 169 164 147 152 154 174 175 153 145 160 156 146 161 168
243 246 247 238 225 218 221 245 211 209 191 170 165 167 169 171 176 171 166 165 163 164 160 157 164 157 164 175 196 197 188 155 148 148 153 173 169 158 167 163 177 165 154 156 156 172 170 165 167
237 237 241 233 203 205 207 229 204 210 201 180 171 166 165 170 177 170 165 165 163 161 157 162 164 160 169 179 192 213 178 152 156 153 157 169 177 170 181 169 148 164 164 161 190 164 172 169 178
235 233 237 238 195 198 214 222 197 207 204 182 170 165 166 173 179 169 166 165 158 156 156 166 172 164 168 175 187 208 182 172 171 159 155 159 176 181 182 166 162 185 171 169 158 125 165 167 192
267 270 263 253 209 205 220 226 217 209 201 175 172 173 167 173 177 160 164 167 164 162 164 174 178 171 169 177 186 188 188 181 178 171 159 163 178 177 183 182 165 188 175 171 168 164 183 203 195
256 264 259 245 223 225 233 236 220 220 212 183 179 175 167 171 166 159 171 171 170 168 172 177 180 177 180 182 184 183 184 187 182 179 165 172 176 177 185 187 181 176 172 181 187 172 192 211 192
244 250 253 251 230 222 246 246 225 222 217 195 184 175 174 169 169 167 170 170 170 173 177 179 179 180 184 180 182 189 180 193 188 178 173 180 180 187 193 176 197 181 185 178 190 194 202 224 219
240 240 251 252 250 242 239 249 222 209 224 210 190 179 173 168 165 167 166 170 174 175 177 173 176 177 181 184 189 190 191 195 194 181 178 184 188 188 189 187 191 192 191 168 194 191 204 209 235
239 240 243 249 251 259 255 256 229 194 217 215 189 176 167 160 162 167 165 166 169 170 169 171 170 174 181 191 195 197 203 201 192 184 178 180 188 196 198 195 188 192 197 177 191 171 197 204 228
232 238 238 246 251 248 245 250 234 210 200 193 173 165 164 166 163 156 154 153 160 167 169 169 168 176 186 195 198 203 206 204 194 188 178 182 186 195 204 199 190 196 199 185 184 185 197 208 227
219 220 218 222 228 242 235 234 209 174 169 187 166 151 162 170 154 149 151 155 163 170 172 170 169 179 185 193 200 204 205 203 202 193 186 189 189 193 202 201 193 201 201 191 186 191 207 207 217
210 219 224 225 229 238 226 224 185 156 154 155 149 146 158 157 147 146 153 159 165 168 171 168 167 174 182 191 197 198 197 203 205 205 195 197 198 196 192 195 194 204 204 204 192 196 205 206 213
212 220 236 249 268 265 232 211 156 153 154 151 148 143 149 153 147 151 153 159 162 160 163 164 162 169 179 187 188 188 193 204 205 198 205 209 200 192 187 194 197 201 206 208 195 209 209 198 208
229 219 233 248 262 267 237 215 186 170 162 153 147 149 149 147 149 145 146 155 151 155 154 160 161 168 176 179 188 189 189 195 199 196 202 204 199 198 181 194 196 201 204 210 208 213 213 206 211
216 221 226 242 247 251 244 242 30 149 153 153 148 143 143 144 140 138 137 134 136 141 144 155 159 167 170 171 177 177 178 186 190 198 206 196 191 191 188 194 196 198 204 209 209 216 213 207 213
217 224 222 231 243 258 255 185 189 158 172 144 131 135 139 134 131 128 128 127 129 135 142 152 159 164 162 162 158 166 169 175 184 193 192 180 181 190 188 195 194 199 203 206 210 218 217 213 213